Voltar ao catálogo

FENGYUN 1C DEB

AtivoSSO
NORAD 30283·DEBRIS·🇨🇳 China

Lançado May 10, 1999 de Taiyuan Satellite Launch Center

Loading…

Próximas Passagens (próximas 24 horas)

TLE

AtualizadoSource: Space-Track

Época: Sep 14, 2026, 17:37 UTC

1 30283U 99025YU  26257.73414118  .00000295  00000-0  19149-3 0  9995
2 30283  98.8844 249.3120 0182950 354.6501 179.4593 14.02096867  5599

Acompanhe FENGYUN 1C DEB em tempo real com AllMySat

Download on the App Store